Location: Presov
(49.0000°N, 21.2500°E)
Time: 11:04:20
(UTC+02:00)

A-11 Canister half - Pass Details

Date: 21 April 2021
Orbit: 1526 x 1683 km, 47.3° (Epoch: 11 May)

Event Time Altitude Azimuth Distance (km) Brightness Sun altitude
Rises 23:16:34 0° 288° (WNW) 4,939 12.2 -26.5°
Reaches altitude 10° 23:21:03 10° 272° (W) 3,940 11.4 -26.8°
Maximum altitude 23:27:10 18° 234° (SW) 3,298 10.5 -27.1°
Enters shadow 23:29:03 17° 220° (SW) 3,352 10.5 -27.2°
